[[{"header":{"parameterUnit":"m.s-1","parameterCategory":1,"la1":30.2991,"la2":30.254,"lo1":-89.0895,"lo2":-89.0444,"dy":0.0017,"dx":0.0017,"nx":28,"ny":28,"refTime":"2024-04-23T21:00:00:Z","depth":0,"parameterNumber":2,"parameterNumberName":"U-component_of_WINDS"},"data":[0,0,0,0,0,0,0,0,0,0,0,0,0,0,0,0,0,0,0,0,0,0,0,0,0,0,0,0,0,0,0,0,0,0,0,0,0,0,0,0,0,0,0,0,0,0,0,0,0,0,0,0,0,0,0,0,0,0,-1.1205,-1.1204,0,-1.1196,-1.1196,-1.1196,-1.1183,-1.1183,-1.1183,-1.1183,-1.1175,-1.1175,-1.1175,0,0,0,0,0,0,0,0,0,0,0,0,0,-1.121,-1.121,-1.1205,-1.1204,-1.1204,-1.1196,-1.1196,-1.1196,-1.1183,-1.1183,-1.1183,-1.1183,-1.1175,-1.1175,-1.1175,0,0,0,0,0,0,0,0,0,0,0,0,0,-1.1206,-1.121,-1.1205,-1.1197,-1.1196,-1.1196,-1.1196,-1.1196,-1.1183,-1.1183,-1.1183,-1.1182,-1.1175,-1.1175,-1.1175,-1.1182,0,0,-1.1175,-1.1175,0,0,0,0,0,0,0,0,-1.1206,-1.1205,-1.1198,-1.1198,-1.1197,-1.1191,-1.1195,-1.1191,-1.1184,-1.1188,-1.1183,-1.1182,-1.118,-1.118,-1.1179,-1.1181,-1.1181,-1.1175,-1.1175,-1.1175,-1.1175,0,0,0,0,0,0,0,-1.1206,-1.1206,-1.1201,-1.1198,-1.1197,-1.1194,-1.1193,-1.1195,-1.1186,-1.1188,-1.1187,-1.1186,-1.118,-1.1179,-1.1179,-1.1181,-1.1175,-1.1175,-1.1175,-1.1175,-1.119,-1.1191,0,0,0,0,0,0,-1.1208,-1.1206,-1.1202,-1.1201,-1.1201,-1.1195,-1.1193,-1.1193,-1.1186,-1.1185,-1.1186,-1.1186,-1.1179,-1.1179,-1.1178,-1.1187,-1.1175,-1.1175,-1.1175,-1.119,-1.119,-1.1191,0,0,0,0,0,0,-1.1208,-1.1207,-1.1202,-1.1203,-1.1202,-1.1195,-1.1194,-1.1193,-1.1192,-1.1185,-1.1184,-1.1187,-1.1179,-1.1178,-1.1181,-1.1186,-1.1175,-1.1175,-1.1189,-1.119,-1.119,-1.1204,0,0,0,0,0,0,-1.1208,-1.1207,-1.121,-1.1203,-1.1202,-1.1204,-1.1195,-1.1193,-1.1192,-1.1191,-1.1185,-1.1184,-1.1179,-1.1181,-1.1181,-1.1186,-1.1175,-1.1189,-1.119,-1.119,-1.1203,-1.1204,-1.1206,0,0,0,0,0,-1.1208,-1.1213,-1.121,-1.1209,-1.1205,-1.1205,-1.1204,-1.1197,-1.1193,-1.1195,-1.1191,-1.1184,-1.1186,-1.1182,-1.1182,-1.1187,-1.1188,-1.1189,-1.119,-1.1202,-1.1204,-1.1206,0,0,0,0,0,0,-1.122,-1.1212,-1.1208,-1.1212,-1.1209,-1.1203,-1.1205,-1.12,-1.1199,-1.1198,-1.119,-1.1189,-1.1193,-1.119,-1.1185,-1.1194,-1.1186,-1.1187,-1.1195,-1.1197,-1.1199,-1.12,-1.1175,0,0,0,0,0,-1.1223,-1.1223,-1.1217,-1.122,-1.1219,-1.1213,-1.1212,-1.1208,-1.1205,-1.1203,-1.1199,-1.1197,-1.1197,-1.1197,-1.1197,-1.1202,-1.1201,-1.1206,-1.1208,-1.1209,-1.121,-1.1214,-1.1216,-1.1194,-1.1194,-1.1194,0,0,-1.1229,-1.1225,-1.1226,-1.1223,-1.122,-1.1221,-1.1212,-1.1213,-1.1214,-1.1204,-1.1206,-1.1203,-1.12,-1.1205,-1.1207,-1.1203,-1.1216,-1.121,-1.1212,-1.1212,-1.1215,-1.1217,-1.1219,-1.1194,-1.1194,-1.1194,0,0,-1.1241,-1.1238,-1.1241,-1.1239,-1.1235,-1.1231,-1.1232,-1.1226,-1.1224,-1.1227,-1.1219,-1.1221,-1.1221,-1.1219,-1.1218,-1.1231,-1.1225,-1.1231,-1.124,-1.1244,-1.1246,-1.1247,-1.1252,-1.1254,-1.1232,-1.1232,-1.1232,0,-1.1249,-1.125,-1.1243,-1.1245,-1.1244,-1.1236,-1.1239,-1.1237,-1.1234,-1.1234,-1.123,-1.123,-1.1227,-1.1232,-1.1235,-1.1235,-1.1236,-1.1231,-1.1246,-1.1247,-1.1249,-1.1253,-1.1255,-1.1233,-1.1233,-1.1233,-1.1233,0,-1.1261,-1.1261,-1.1264,-1.1261,-1.1261,-1.1264,-1.1258,-1.1258,-1.1254,-1.1251,-1.1254,-1.1251,-1.125,-1.1251,-1.1246,-1.1255,-1.1253,-1.1247,-1.124,-1.1252,-1.1256,-1.1258,-1.1234,-1.1234,-1.1233,-1.1233,0,0,-1.1279,-1.1273,-1.1274,-1.1273,-1.1269,-1.127,-1.1272,-1.1272,-1.1273,-1.1271,-1.1273,-1.1274,-1.127,-1.1269,-1.1265,-1.1268,-1.1279,-1.1262,-1.1262,-1.1266,-1.1289,-1.1293,-1.1295,-1.1276,-1.1276,-1.1276,-1.129,0,-1.129,-1.1293,-1.1288,-1.1293,-1.1295,-1.1287,-1.129,-1.1288,-1.1285,-1.1286,-1.1283,-1.1284,-1.1278,-1.1277,-1.128,-1.1277,-1.1284,-1.1276,-1.1278,-1.1278,-1.1279,-1.1297,-1.1301,-1.1314,-1.1291,-1.1291,-1.1292,0,-1.1303,-1.1302,-1.1307,-1.1304,-1.1304,-1.1307,-1.1306,-1.1307,-1.1305,-1.1303,-1.1303,-1.1298,-1.1301,-1.1294,-1.1299,-1.1294,-1.1295,-1.1293,-1.1294,-1.1293,-1.1285,-1.1298,-1.1318,-1.132,-1.1294,-1.1294,-1.1294,0,-1.1316,-1.1316,-1.132,-1.1319,-1.1315,-1.1317,-1.1316,-1.1313,-1.1314,-1.1314,-1.1314,-1.1314,-1.1314,-1.1315,-1.1311,-1.1306,-1.1316,-1.1309,-1.1315,-1.1315,-1.1317,-1.1317,-1.1337,-1.1318,-1.1318,-1.1318,-1.1317,0,-1.1328,-1.1332,-1.1326,-1.1328,-1.1332,-1.1326,-1.1331,-1.1329,-1.1327,-1.1329,-1.1323,-1.1325,-1.1319,-1.1321,-1.1318,-1.1323,-1.1323,-1.1322,-1.1321,-1.1322,-1.1322,-1.1322,-1.1321,-1.1318,-1.1318,-1.1318,-1.1318,0,-1.1343,-1.1339,-1.1343,-1.1339,-1.1338,-1.1342,-1.1339,-1.1341,-1.1338,-1.1341,-1.1341,-1.1337,-1.1339,-1.1335,-1.1336,-1.1334,-1.1341,-1.1339,-1.1342,-1.1341,-1.1348,-1.1347,-1.1369,-1.1372,-1.135,-1.135,-1.135,0,-1.1352,-1.1355,-1.1352,-1.1353,-1.1351,-1.1353,-1.1354,-1.1348,-1.1349,-1.1348,-1.1351,-1.1352,-1.1353,-1.1357,-1.1354,-1.1355,-1.1353,-1.1361,-1.1353,-1.1355,-1.1354,-1.1354,-1.1354,-1.1362,-1.1362,-1.1363,-1.1363,0,-1.1367,-1.1365,-1.1366,-1.1367,-1.1367,-1.1367,-1.1367,-1.1368,-1.1363,-1.1364,-1.1366,-1.1367,-1.1369,-1.1371,-1.1372,-1.1371,-1.1366,-1.1365,-1.1367,-1.1368,-1.137,-1.137,-1.1346,-1.1365,-1.1365,-1.1364,-1.1364,-1.1364,-1.138,-1.1382,-1.1381,-1.1382,-1.1381,-1.1381,-1.1384,-1.1381,-1.1383,-1.1384,-1.1381,-1.1384,-1.1383,-1.1384,-1.1384,-1.1386,-1.1383,-1.1385,-1.1386,-1.1386,-1.1387,-1.137,-1.1386,-1.1386,-1.1386,-1.1386,-1.1386,0,-1.1395,-1.1394,-1.1395,-1.1395,-1.1397,-1.1392,-1.1392,-1.1394,-1.1396,-1.1396,-1.1397,-1.14,-1.1402,-1.14,-1.1402,-1.1404,-1.1402,-1.1405,-1.1405,-1.1405,-1.139,-1.1389,-1.1407,-1.1407,-1.1407,-1.1407,-1.1407,-1.1407,-1.1403,-1.1408,-1.1406,-1.141,-1.1409,-1.1412,-1.1412,-1.1412,-1.1412,-1.1415,-1.1417,-1.1416,-1.1415,-1.1417,-1.1419,-1.1418,-1.1419,-1.1423,-1.1422,-1.1408,-1.1406,-1.1404,-1.1402,-1.1423,-1.1423,-1.1436,-1.1436,-1.1436]},{"header":{"parameterUnit":"m.s-1","parameterCategory":1,"la1":30.2991,"la2":30.254,"lo1":-89.0895,"lo2":-89.0444,"dy":0.0017,"dx":0.0017,"nx":28,"ny":28,"refTime":"2024-04-23T21:00:00:Z","depth":0,"parameterNumber":3,"parameterNumberName":"V-component_of_WINDS"},"data":[0,0,0,0,0,0,0,0,0,0,0,0,0,0,0,0,0,0,0,0,0,0,0,0,0,0,0,0,0,0,0,0,0,0,0,0,0,0,0,0,0,0,0,0,0,0,0,0,0,0,0,0,0,0,0,0,0,0,3.7184,3.7184,0,3.7187,3.7187,3.7187,3.7215,3.7215,3.7216,3.7217,3.7217,3.7216,3.7215,0,0,0,0,0,0,0,0,0,0,0,0,0,3.7199,3.7198,3.7184,3.7184,3.7184,3.7187,3.7187,3.7187,3.7215,3.7215,3.7216,3.7217,3.7217,3.7216,3.7215,0,0,0,0,0,0,0,0,0,0,0,0,0,3.7196,3.7198,3.7184,3.7198,3.7199,3.7187,3.7187,3.7187,3.7214,3.7215,3.7216,3.7217,3.7217,3.7216,3.7215,3.7189,0,0,3.7212,3.7212,0,0,0,0,0,0,0,0,3.7196,3.7195,3.7196,3.7197,3.7199,3.7202,3.7193,3.7188,3.7214,3.7209,3.7217,3.7218,3.7211,3.721,3.7209,3.7189,3.7189,3.7212,3.7212,3.7211,3.7211,0,0,0,0,0,0,0,3.7196,3.7195,3.7185,3.7196,3.7197,3.7203,3.7204,3.7192,3.7204,3.7209,3.7211,3.7211,3.7212,3.7209,3.7209,3.7189,3.7212,3.7211,3.7211,3.721,3.7149,3.7148,0,0,0,0,0,0,3.7195,3.7195,3.7185,3.7185,3.72,3.7202,3.7203,3.72,3.7204,3.7206,3.721,3.7213,3.7211,3.721,3.7209,3.7179,3.7211,3.721,3.721,3.715,3.7149,3.7148,0,0,0,0,0,0,3.7195,3.7194,3.7185,3.7191,3.719,3.7201,3.7197,3.7199,3.7197,3.7205,3.7207,3.7206,3.7211,3.721,3.7194,3.7179,3.721,3.7209,3.7151,3.715,3.7148,3.7119,0,0,0,0,0,0,3.7195,3.7194,3.7184,3.7191,3.719,3.7171,3.7196,3.7198,3.7196,3.7199,3.7202,3.7203,3.7212,3.7196,3.7193,3.7179,3.7208,3.7153,3.7151,3.7149,3.7121,3.7116,3.7112,0,0,0,0,0,3.7196,3.7175,3.7184,3.7182,3.7178,3.717,3.7169,3.7181,3.7195,3.7185,3.719,3.7203,3.7182,3.7194,3.7191,3.7176,3.7154,3.7151,3.7149,3.7123,3.7117,3.7113,0,0,0,0,0,0,3.7164,3.7176,3.7186,3.7166,3.7167,3.7175,3.7163,3.7175,3.7171,3.7173,3.7187,3.7188,3.717,3.7171,3.7185,3.7152,3.717,3.7167,3.7151,3.7146,3.7141,3.7141,3.7208,0,0,0,0,0,3.7156,3.7149,3.7158,3.714,3.714,3.7151,3.7148,3.7157,3.7158,3.7158,3.7163,3.7162,3.7156,3.7151,3.7145,3.7122,3.7123,3.711,3.7106,3.7102,3.7099,3.7088,3.7083,3.714,3.714,3.714,0,0,3.7137,3.7142,3.7136,3.7134,3.7136,3.7128,3.7151,3.7142,3.7136,3.7157,3.7142,3.7145,3.7146,3.7127,3.7118,3.7127,3.7084,3.7099,3.7096,3.7095,3.7085,3.708,3.7075,3.7138,3.7139,3.7139,0,0,3.7098,3.7101,3.7087,3.7089,3.7092,3.71,3.7096,3.7103,3.7106,3.7092,3.7108,3.7101,3.7089,3.7089,3.7087,3.7051,3.7062,3.7048,3.7025,3.7014,3.701,3.7006,3.6993,3.6988,3.7045,3.7045,3.7045,0,3.7074,3.7063,3.7078,3.7068,3.7066,3.7087,3.7072,3.7073,3.7073,3.7072,3.7082,3.7069,3.7071,3.7052,3.7043,3.7041,3.7038,3.7048,3.7009,3.7005,3.7002,3.699,3.6985,3.7044,3.7044,3.7044,3.7044,0,3.7033,3.7026,3.7014,3.7016,3.7013,3.7,3.7013,3.7008,3.7018,3.7025,3.7011,3.7014,3.7009,3.7006,3.7014,3.6989,3.6994,3.7007,3.7026,3.6995,3.6984,3.6979,3.7041,3.7042,3.7042,3.7043,0,0,3.6974,3.6985,3.6981,3.6982,3.6988,3.6982,3.6971,3.6968,3.6964,3.6964,3.6955,3.6945,3.6957,3.6956,3.6965,3.6955,3.6926,3.6969,3.6969,3.6961,3.6899,3.6889,3.6884,3.6935,3.6934,3.6933,3.6899,0,3.6937,3.692,3.6933,3.6913,3.6906,3.6926,3.6916,3.6919,3.6925,3.6919,3.6926,3.6919,3.6935,3.6935,3.6926,3.6932,3.6914,3.6934,3.6926,3.6925,3.6925,3.6878,3.6868,3.6835,3.6895,3.6894,3.6893,0,3.6892,3.6892,3.6871,3.6879,3.6877,3.6868,3.6867,3.6862,3.6865,3.687,3.6869,3.6882,3.6871,3.689,3.6875,3.6888,3.6886,3.6888,3.6887,3.6887,3.6907,3.6876,3.6825,3.682,3.6887,3.6887,3.6888,0,3.6851,3.6845,3.6833,3.6833,3.6843,3.6836,3.6839,3.6844,3.6842,3.6841,3.684,3.6837,3.6835,3.6833,3.6844,3.6856,3.6828,3.6847,3.6831,3.6831,3.6824,3.6824,3.6772,3.6822,3.6822,3.6822,3.6822,0,3.6809,3.6795,3.6815,3.6807,3.6793,3.6809,3.6794,3.6799,3.6803,3.6796,3.6813,3.6806,3.6821,3.6816,3.6824,3.6811,3.681,3.6813,3.6816,3.6812,3.6811,3.681,3.6813,3.6821,3.6821,3.6822,3.6822,0,3.676,3.6773,3.6761,3.6771,3.6774,3.6763,3.6771,3.6764,3.6772,3.6764,3.6762,3.6774,3.6769,3.678,3.6775,3.6781,3.6763,3.6769,3.6762,3.6764,3.6748,3.6749,3.6692,3.6686,3.674,3.674,3.6739,0,3.6732,3.6723,3.6733,3.6731,3.6734,3.6729,3.6727,3.6743,3.674,3.6744,3.6736,3.6733,3.6731,3.6721,3.6729,3.6726,3.6732,3.6712,3.6731,3.6728,3.6732,3.6733,3.6732,3.6708,3.6708,3.6707,3.6707,0,3.6682,3.6689,3.6687,3.6687,3.6685,3.6686,3.6688,3.6684,3.6701,3.6697,3.6693,3.6692,3.6688,3.6684,3.6684,3.6686,3.6699,3.6701,3.6697,3.6693,3.669,3.6692,3.6752,3.6702,3.6702,3.6703,3.6703,3.6703,3.6643,3.6636,3.6643,3.664,3.6643,3.6645,3.6639,3.6647,3.6644,3.6644,3.6653,3.6646,3.6651,3.6651,3.6653,3.6648,3.6657,3.6651,3.665,3.6648,3.6646,3.6691,3.6648,3.6648,3.6648,3.6648,3.6648,0,3.6593,3.6599,3.6597,3.66,3.6598,3.6611,3.6614,3.6612,3.6606,3.661,3.6608,3.6603,3.66,3.6608,3.6606,3.6601,3.6607,3.66,3.66,3.6601,3.6638,3.6641,3.6595,3.6595,3.6595,3.6595,3.6595,3.6595,3.6567,3.6557,3.6565,3.6556,3.6562,3.6557,3.6557,3.6559,3.6562,3.6556,3.6555,3.656,3.6566,3.6565,3.6562,3.6565,3.6563,3.6555,3.6559,3.6593,3.6598,3.6603,3.6607,3.6554,3.6554,3.6523,3.6522,3.6522]}]]